Location: Unspecified
(0.0000°N, 0.0000°E)
Time: 12:43:05
(UTC+00:00)

Tiangong 1 - Pass Details

Date: 16 December 2017
Orbit: 274 x 301 km, 42.8° (Epoch: 16 December)

Event Time Altitude Azimuth Distance (km) Brightness Sun altitude
Exits shadow 04:20:24 17° 74° (ENE) 809 3.3 -21.7°
Drops below altitude 10° 04:21:10 10° 65° (ENE) 1,100 3.9 -21.6°
Sets 04:23:10 0° 56° (NE) 1,916 5.0 -21.1°
